When you browse on this site, cookies collect data to enhance your experience and personalize the content and advertising you see.
Visit our Privacy Policy to learn more. By continuing to use the site, you agree to this use of cookies and data.
  • In Spain
  • List of Countries
  • For 7 days
  • Water Temperature
  • Satellite Maps
  • Weather Map
  • Weather Widgets
  • user-avatar
    Login

    Hourly Weather Blantyre

    Today, 21 April, Sunday

    Time Temperature Precipitation Wind Pressure Humidity
    00:00 +18°C° 0 mm 1 mps 676 mmHg 92%
    01:00 +18°C° 0 mm 1 mps 676 mmHg 94%
    02:00 +18°C° 0 mm 1 mps 676 mmHg 95%
    03:00 +18°C° 0 mm 1 mps 676 mmHg 95%
    04:00 +18°C° 0 mm 1 mps 676 mmHg 95%
    05:00 +18°C° 0 mm 1 mps 676 mmHg 95%
    06:00 +19°C° 0 mm 1 mps 676 mmHg 91%
    07:00 +20°C° 0 mm 1 mps 677 mmHg 86%
    08:00 +21°C° 0 mm 1 mps 677 mmHg 81%
    09:00 +22°C° 0 mm 1 mps 677 mmHg 73%
    10:00 +24°C° 0 mm 2 mps 677 mmHg 64%
    11:00 +26°C° 0 mm 2 mps 677 mmHg 55%
    12:00 +26°C° 0 mm 2 mps 677 mmHg 51%
    13:00 +27°C° 0 mm 3 mps 676 mmHg 48%
    14:00 +28°C° 0 mm 3 mps 676 mmHg 45%
    15:00 +26°C° 0 mm 3 mps 675 mmHg 50%
    16:00 +25°C° 0 mm 3 mps 675 mmHg 55%
    17:00 +24°C° 0 mm 2 mps 675 mmHg 59%
    18:00 +21°C° 0 mm 2 mps 675 mmHg 66%
    19:00 +20°C° 0 mm 2 mps 675 mmHg 72%
    20:00 +18°C° 0 mm 2 mps 675 mmHg 78%
    21:00 +19°C° 0 mm 1 mps 675 mmHg 83%
    22:00 +18°C° 0 mm 1 mps 675 mmHg 87%
    23:00 +16°C° 0 mm 1 mps 676 mmHg 91%

    Tomorrow, 22 April, Monday

    Time Temperature Precipitation Wind Pressure Humidity
    00:00 +16°C° 0 mm 1 mps 675 mmHg 93%
    01:00 +16°C° 0 mm 1 mps 675 mmHg 94%
    02:00 +16°C° 0 mm 1 mps 675 mmHg 95%
    03:00 +15°C° 0 mm 1 mps 675 mmHg 96%
    04:00 +15°C° 0 mm 1 mps 675 mmHg 96%
    05:00 +15°C° 0 mm 1 mps 675 mmHg 97%
    06:00 +16°C° 0 mm 1 mps 676 mmHg 90%
    07:00 +19°C° 0 mm 1 mps 676 mmHg 83%
    08:00 +20°C° 0 mm 1 mps 677 mmHg 76%
    09:00 +21°C° 0 mm 2 mps 677 mmHg 66%
    10:00 +24°C° 0 mm 2 mps 678 mmHg 56%
    11:00 +26°C° 0 mm 3 mps 678 mmHg 46%
    12:00 +26°C° 0 mm 3 mps 677 mmHg 46%
    13:00 +27°C° 0 mm 3 mps 676 mmHg 46%
    14:00 +27°C° 0 mm 3 mps 676 mmHg 46%
    15:00 +26°C° 0 mm 3 mps 675 mmHg 52%
    16:00 +25°C° 0 mm 3 mps 675 mmHg 57%
    17:00 +23°C° 0 mm 2 mps 675 mmHg 63%
    18:00 +21°C° 0 mm 2 mps 675 mmHg 70%
    19:00 +20°C° 0 mm 2 mps 675 mmHg 76%
    20:00 +19°C° 0 mm 1 mps 676 mmHg 82%
    21:00 +19°C° 0 mm 1 mps 676 mmHg 86%
    22:00 +18°C° 0 mm 1 mps 676 mmHg 89%
    23:00 +18°C° 0 mm 1 mps 676 mmHg 92%

    Day after tomorrow, 23 April, Tuesday

    Time Temperature Precipitation Wind Pressure Humidity
    00:00 +18°C° 0 mm 1 mps 676 mmHg 94%
    01:00 +18°C° 0 mm 1 mps 676 mmHg 95%
    02:00 +18°C° 0 mm 1 mps 676 mmHg 96%
    03:00 +16°C° 0 mm 1 mps 676 mmHg 96%
    04:00 +16°C° 0 mm 1 mps 676 mmHg 97%
    05:00 +16°C° 0 mm 1 mps 676 mmHg 97%
    06:00 +18°C° 0 mm 1 mps 676 mmHg 93%
    07:00 +19°C° 0 mm 1 mps 677 mmHg 89%
    08:00 +20°C° 0 mm 1 mps 677 mmHg 85%
    09:00 +20°C° 0 mm 2 mps 677 mmHg 79%
    10:00 +21°C° 0 mm 2 mps 677 mmHg 74%
    11:00 +23°C° 0 mm 2 mps 678 mmHg 68%
    12:00 +24°C° 0 mm 2 mps 677 mmHg 64%
    13:00 +25°C° 0 mm 2 mps 677 mmHg 60%
    14:00 +26°C° 0 mm 3 mps 676 mmHg 56%
    15:00 +25°C° 0 mm 2 mps 676 mmHg 60%
    16:00 +24°C° 0 mm 2 mps 676 mmHg 64%
    17:00 +23°C° 0 mm 2 mps 675 mmHg 69%
    18:00 +20°C° 0 mm 2 mps 676 mmHg 74%
    19:00 +20°C° 0 mm 1 mps 676 mmHg 80%
    20:00 +18°C° 0 mm 1 mps 676 mmHg 86%
    21:00 +18°C° 0 mm 1 mps 676 mmHg 86%
    22:00 +18°C° 0 mm 1 mps 676 mmHg 87%
    23:00 +18°C° 0 mm 1 mps 677 mmHg 88%

    24 April, Wednesday

    Time Temperature Precipitation Wind Pressure Humidity
    00:00 +16°C° 0 mm 1 mps 676 mmHg 88%
    01:00 +15°C° 0 mm 0 mps 676 mmHg 88%
    02:00 +15°C° 0 mm 0 mps 676 mmHg 89%
    03:00 +15°C° 0 mm 0 mps 676 mmHg 89%
    04:00 +15°C° 0 mm 0 mps 676 mmHg 90%
    05:00 +15°C° 0 mm 0 mps 676 mmHg 91%
    06:00 +19°C° 0 mm 1 mps 677 mmHg 87%
    07:00 +20°C° 0 mm 1 mps 677 mmHg 83%
    08:00 +21°C° 0 mm 1 mps 678 mmHg 78%
    09:00 +23°C° 0 mm 2 mps 678 mmHg 68%
    10:00 +25°C° 0 mm 2 mps 678 mmHg 59%
    11:00 +26°C° 0 mm 3 mps 678 mmHg 49%
    12:00 +27°C° 0 mm 3 mps 678 mmHg 49%
    13:00 +27°C° 0 mm 3 mps 677 mmHg 49%
    14:00 +28°C° 0 mm 3 mps 676 mmHg 49%
    15:00 +26°C° 0 mm 3 mps 676 mmHg 55%
    16:00 +25°C° 0 mm 2 mps 676 mmHg 61%
    17:00 +24°C° 0 mm 2 mps 676 mmHg 67%
    18:00 +23°C° 0 mm 2 mps 676 mmHg 73%
    19:00 +20°C° 0 mm 2 mps 676 mmHg 80%
    20:00 +20°C° 0 mm 1 mps 677 mmHg 86%
    21:00 +19°C° 0 mm 1 mps 677 mmHg 88%
    22:00 +19°C° 0 mm 1 mps 677 mmHg 91%
    23:00 +19°C° 0 mm 1 mps 677 mmHg 93%

    25 April, Thursday

    Time Temperature Precipitation Wind Pressure Humidity
    00:00 +18°C° 0 mm 1 mps 676 mmHg 94%
    01:00 +18°C° 0 mm 1 mps 676 mmHg 95%
    02:00 +16°C° 0 mm 0 mps 676 mmHg 96%
    03:00 +16°C° 0 mm 0 mps 676 mmHg 96%
    04:00 +16°C° 0 mm 0 mps 676 mmHg 96%
    05:00 +16°C° 0 mm 0 mps 676 mmHg 96%
    06:00 +19°C° 0 mm 1 mps 677 mmHg 93%
    07:00 +20°C° 0 mm 1 mps 677 mmHg 90%
    08:00 +21°C° 0 mm 1 mps 678 mmHg 86%
    09:00 +22°C° 0 mm 1 mps 678 mmHg 82%
    10:00 +21°C° 0 mm 2 mps 677 mmHg 78%
    11:00 +23°C° 0 mm 2 mps 677 mmHg 74%
    12:00 +25°C° 0 mm 2 mps 677 mmHg 68%
    13:00 +26°C° 0 mm 2 mps 676 mmHg 62%
    14:00 +27°C° 0 mm 2 mps 676 mmHg 56%
    15:00 +26°C° 0 mm 2 mps 675 mmHg 60%
    16:00 +25°C° 0 mm 1 mps 675 mmHg 63%
    17:00 +24°C° 0 mm 1 mps 675 mmHg 67%
    18:00 +23°C° 0 mm 1 mps 675 mmHg 72%
    19:00 +21°C° 0 mm 1 mps 676 mmHg 77%
    20:00 +20°C° 0 mm 1 mps 676 mmHg 82%
    21:00 +20°C° 0 mm 1 mps 676 mmHg 85%
    22:00 +19°C° 0 mm 1 mps 676 mmHg 87%
    23:00 +19°C° 0 mm 1 mps 676 mmHg 90%

    26 April, Friday

    Time Temperature Precipitation Wind Pressure Humidity
    00:00 +19°C° 0 mm 1 mps 675 mmHg 91%
    01:00 +18°C° 0 mm 1 mps 675 mmHg 92%
    02:00 +18°C° 0 mm 1 mps 675 mmHg 93%
    03:00 +16°C° 0 mm 0 mps 674 mmHg 94%
    04:00 +16°C° 0 mm 0 mps 674 mmHg 94%
    05:00 +15°C° 0 mm 0 mps 674 mmHg 94%
    06:00 +17°C° 0 mm 0 mps 675 mmHg 88%
    07:00 +19°C° 0 mm 0 mps 676 mmHg 82%
    08:00 +20°C° 0 mm 0 mps 677 mmHg 75%
    09:00 +23°C° 0 mm 0 mps 677 mmHg 67%
    10:00 +27°C° 0 mm 1 mps 677 mmHg 59%
    11:00 +29°C° 0 mm 1 mps 677 mmHg 51%
    12:00 +29°C° 0 mm 1 mps 677 mmHg 51%
    13:00 +29°C° 0 mm 1 mps 676 mmHg 50%
    14:00 +29°C° 0 mm 2 mps 675 mmHg 50%
    15:00 +28°C° 0 mm 2 mps 675 mmHg 54%
    16:00 +27°C° 0 mm 2 mps 674 mmHg 59%
    17:00 +26°C° 0 mm 2 mps 674 mmHg 63%
    18:00 +24°C° 0 mm 1 mps 674 mmHg 68%
    19:00 +23°C° 0 mm 1 mps 675 mmHg 72%
    20:00 +22°C° 0 mm 1 mps 675 mmHg 77%
    21:00 +21°C° 0 mm 1 mps 675 mmHg 80%
    22:00 +21°C° 0 mm 1 mps 675 mmHg 84%
    23:00 +20°C° 0 mm 1 mps 675 mmHg 87%
    Show more